Location: 22
(39.7117°N, 89.5929°W)
Time: 03:53:24
(UTC-05:00)

A-11 Canister half - Visible Passes

Search period start: 10 June 2023 00:00
Search period end: 20 June 2023 00:00
Orbit: 1526 x 1682 km, 47.3° (Epoch: 09 June)

Date Brightness Start Highest point End Pass type
(mag) Time Alt. Az. Time Alt. Az. Time Alt. Az.
10 Jun 9.5 00:04:48 10° WNW 00:14:00 58° N 00:23:24 10° E visible
10 Jun 8.9 02:10:07 10° WNW 02:19:35 82° SSW 02:29:18 10° SE visible
10 Jun 9.7 04:16:03 10° WNW 04:23:41 28° SW 04:31:30 10° S visible
10 Jun 9.5 21:36:49 10° W 21:46:02 63° NNW 21:55:21 10° ENE visible
10 Jun 9.5 23:43:03 10° WNW 23:52:14 57° N 00:01:35 10° E visible
11 Jun 8.9 01:48:25 10° WNW 01:57:51 84° SSW 02:07:35 10° SE visible
11 Jun 9.6 03:54:14 10° WNW 04:02:02 30° SW 04:10:01 10° S visible
11 Jun 9.5 21:15:03 10° W 21:24:17 64° NNW 21:33:37 10° ENE visible
11 Jun 9.5 23:21:19 10° WNW 23:30:27 56° N 23:39:47 10° E visible
12 Jun 8.9 01:26:42 10° WNW 01:36:08 87° SSW 01:45:51 10° ESE visible
12 Jun 9.5 03:32:26 10° WNW 03:40:22 31° SW 03:48:32 10° S visible
12 Jun 9.5 20:53:17 10° W 21:02:32 65° NNW 21:11:52 10° ENE visible
12 Jun 9.6 22:59:34 10° WNW 23:08:41 56° N 23:17:59 10° E visible
13 Jun 8.9 01:05:00 10° WNW 01:14:25 90° SW 01:24:06 10° ESE visible
13 Jun 9.5 03:10:38 10° WNW 03:18:43 33° SW 03:27:01 10° S visible
13 Jun 9.6 22:37:49 10° WNW 22:46:55 55° N 22:56:12 10° E visible
14 Jun 8.9 00:43:17 10° WNW 00:52:42 88° NNE 01:01:42 13° ESE visible
14 Jun 9.4 02:48:50 10° WNW 02:57:04 35° SW 02:59:41 30° SSW visible
14 Jun 9.6 22:16:03 10° WNW 22:25:09 55° N 22:34:23 10° E visible
15 Jun 8.9 00:21:34 10° WNW 00:30:58 85° NNE 00:38:28 19° ESE visible
15 Jun 9.4 02:27:03 10° WNW 02:35:23 37° SW 02:36:35 36° SSW visible
15 Jun 9.6 21:54:17 10° WNW 22:03:23 54° N 22:12:36 10° E visible
15 Jun 8.9 23:59:52 10° WNW 00:09:15 83° NNE 00:16:15 21° ESE visible
16 Jun 9.3 02:05:17 10° WNW 02:13:44 39° SW 02:14:25 38° SW visible
16 Jun 9.6 21:32:32 10° WNW 21:41:37 54° N 21:50:48 10° E visible
16 Jun 9.0 23:38:09 10° WNW 23:47:32 80° NNE 23:54:26 21° ESE visible
17 Jun 9.3 01:43:31 10° WNW 01:52:04 41° SW 01:52:38 41° SW visible
17 Jun 9.7 21:10:46 10° WNW 21:19:51 54° N 21:29:01 10° ENE visible
17 Jun 9.0 23:16:26 10° WNW 23:25:48 78° NNE 23:32:54 20° ESE visible
18 Jun 9.2 01:21:46 10° WNW 01:30:24 43° SW 01:31:06 43° SW visible
18 Jun 9.7 20:49:00 10° WNW 20:58:06 54° N 21:07:14 10° ENE visible
18 Jun 9.1 22:54:43 10° WNW 23:04:04 76° NNE 23:11:30 19° ESE visible
19 Jun 9.2 01:00:01 10° WNW 01:08:44 45° SW 01:09:44 44° SSW visible
19 Jun 9.1 22:33:00 10° WNW 22:42:20 74° NNE 22:50:15 16° ESE visible
